Location: Équennes
(49.7375°N, 1.9622°E)
Time: 14:00:43
(UTC+00:00)

YAOGAN 1 - Visible Passes

Search period start: 25 September 2023 00:00
Search period end: 05 October 2023 00:00
Orbit: 614 x 616 km, 97.8° (Epoch: 25 September)

Date Brightness Start Highest point End Pass type
(mag) Time Alt. Az. Time Alt. Az. Time Alt. Az.
25 Sep 2.7 18:36:21 10° S 18:40:40 79° WSW 18:44:59 10° NNW visible
26 Sep 3.3 18:52:19 10° S 18:56:32 55° W 19:00:48 10° NNW visible
27 Sep 4.0 19:08:25 10° SSW 19:12:27 38° W 19:16:31 10° NNW visible
28 Sep 4.7 19:24:43 10° SSW 19:28:24 27° W 19:32:06 10° NW visible
29 Sep 2.8 18:03:55 10° SE 18:08:04 50° ENE 18:12:15 10° N visible
29 Sep 5.2 19:41:13 10° SW 19:44:23 20° W 19:47:33 10° NW visible
30 Sep 2.5 18:19:35 10° SSE 18:23:52 72° ENE 18:28:10 10° N visible
30 Sep 5.5 19:58:06 10° WSW 20:00:24 14° W 20:02:42 10° NW visible
01 Oct 2.7 18:35:23 10° SSE 18:39:42 81° WSW 18:44:02 10° NNW visible
02 Oct 3.3 18:51:20 10° S 18:55:33 56° W 18:59:49 10° NNW visible
03 Oct 4.0 19:07:25 10° SSW 19:11:27 39° W 19:15:31 10° NNW visible
04 Oct 4.6 19:23:40 10° SSW 19:27:22 28° W 19:31:06 10° NW visible
